User: anonymous   Login
Location: Baix
(44.7118°N, 4.7648°E)
Time: 17:40:30
(UTC+00:00)
Language:

Cosmos 1980 - Orbit

View from above orbital plane
View from above orbital plane
View from above satellite
View from above satellite

Ground track
Ground track

The orbit data is extracted from the following two-line orbital elements,

1 19649U 88102A   20295.23988738 -.00000291 +00000-0 -12604-3 0  9994
2 19649 071.0027 020.7979 0007900 261.4607 098.5621 14.14718301647136
Epoch (UTC): 21 October 2020 05:45:26
Eccentricity: 0.0007900
inclination: 71.0027°
perigee height: 837 km
apogee height: 849 km
right ascension of ascending node: 20.7979°
argument of perigee: 261.4607°
revolutions per day: 14.14718301
mean anomaly at epoch: 98.5621°
orbit number at epoch: 64713

The dashed part of the orbit path shows where the satellite is in the earth's shadow,  

DLR